Weather in Shchapovo

Russia / Ivanovo Oblast     56°40′07″N   40°52′35″E
temp.,
°C
wind,
m/s
gust,
m/s
humid.,
%
clouds,
%
prec.,
mm/h
press.,
hPa
HPBL,
m
28 september, tue
tue2800:00+5ene4989100 0.2 1026737
03:00+5ne499296 0.2 1027629
06:00+3ne399748 0.0 1029406
09:00+5ene488430 0.0 1031565
12:00+9ene346285 0.0 1031967
15:00+10ne345282 0.0 10321109
18:00+6nne22736 0.0 103326
21:00+4nne22805 0.0 103428
29 september, wed
wed2900:00+3n22855 0.0 103421
03:00+2n22885 0.0 103530
06:00+2nnw23925 0.0 103557
09:00+6nne24725 0.0 1035313
12:00+10nne235923 0.0 1035905
15:00+11nne236076 0.0 10341178
18:00+7nnw228164 0.0 103429
21:00+7nnw2283100 0.0 103443
30 september, thu
thu3000:00+8nw1181100 0.0 103430
03:00+7wnw2483100 0.0 1034103
06:00+7nw2588100 0.0 1034169
09:00+9nw2481100 0.0 1034260
12:00+11nw247771 0.0 1034439
15:00+13nw236730 0.0 1034845
18:00+9wnw228814 0.0 103311
21:00+8wnw22945 0.0 103428
1 october, fri
fri100:00+7nw22945 0.0 103440
03:00+7nw23955 0.0 103462
06:00+6nw24965 0.0 103484
09:00+10nw24785 0.0 1034267
12:00+14wnw23635 0.0 1034764
15:00+15wnw23605 0.0 1033963
18:00+10wnw22816 0.0 103316
21:00+8w228812 0.0 103320
2 october, sat
sat200:00+7w22916 0.0 103321
03:00+6w229439 0.0 103322
06:00+5wsw229440 0.0 103324
09:00+9wsw237456 0.0 1033237
12:00+13wsw236014 0.0 1033814
15:00+14sw33565 0.0 10321046
18:00+10ssw22785 0.0 103219
21:00+8ssw23835 0.0 103342